owner,sensor,date,latitude,longitude,vertical_datum,sea_water_temperature,qcFlag 
COMPS,ioos:station:USF.COMPS:C10:1,2015-05-01T00:05:00Z,27.1690,-82.9260,-1.0,26.32,2 
COMPS,ioos:station:USF.COMPS:C10:1,2015-05-01T00:35:00Z,27.1690,-82.9260,-1.0,26.299,2 
COMPS,ioos:station:USF.COMPS:C10:1,2015-05-01T01:05:00Z,27.1690,-82.9260,-1.0,26.261,2 
COMPS,ioos:station:USF.COMPS:C10:1,2015-05-01T01:35:00Z,27.1690,-82.9260,-1.0,26.23,2 
COMPS,ioos:station:USF.COMPS:C10:1,2015-05-01T04:05:00Z,27.1690,-82.9260,-1.0,26.153,2 
COMPS,ioos:station:USF.COMPS:C10:1,2015-05-01T04:35:00Z,27.1690,-82.9260,-1.0,26.124,2 
COMPS,ioos:station:USF.COMPS:C10:1,2015-05-01T05:05:00Z,27.1690,-82.9260,-1.0,26.11,2 
COMPS,ioos:station:USF.COMPS:C10:1,2015-05-01T05:35:00Z,27.1690,-82.9260,-1.0,26.093,2 
COMPS,ioos:station:USF.COMPS:C10:1,2015-05-01T08:05:00Z,27.1690,-82.9260,-1.0,26.077,2 
COMPS,ioos:station:USF.COMPS:C10:1,2015-05-01T08:35:00Z,27.1690,-82.9260,-1.0,26.059,2 
COMPS,ioos:station:USF.COMPS:C10:1,2015-05-01T09:05:00Z,27.1690,-82.9260,-1.0,26.055,2 
COMPS,ioos:station:USF.COMPS:C10:1,2015-05-01T09:35:00Z,27.1690,-82.9260,-1.0,26.037,2 
COMPS,ioos:station:USF.COMPS:C10:1,2015-05-01T10:05:00Z,27.1690,-82.9260,-1.0,26.022,2 
COMPS,ioos:station:USF.COMPS:C10:1,2015-05-01T10:35:00Z,27.1690,-82.9260,-1.0,26.003,2 
COMPS,ioos:station:USF.COMPS:C10:1,2015-05-01T11:05:00Z,27.1690,-82.9260,-1.0,26.012,2 
COMPS,ioos:station:USF.COMPS:C10:1,2015-05-01T11:35:00Z,27.1690,-82.9260,-1.0,26.003,2 
COMPS,ioos:station:USF.COMPS:C10:1,2015-05-01T12:05:00Z,27.1690,-82.9260,-1.0,25.989,2 
COMPS,ioos:station:USF.COMPS:C10:1,2015-05-01T12:35:00Z,27.1690,-82.9260,-1.0,26.011,2 
COMPS,ioos:station:USF.COMPS:C10:1,2015-05-01T13:05:00Z,27.1690,-82.9260,-1.0,26.013,2 
COMPS,ioos:station:USF.COMPS:C10:1,2015-05-01T13:35:00Z,27.1690,-82.9260,-1.0,26.016,2 
COMPS,ioos:station:USF.COMPS:C10:1,2015-05-01T15:05:00Z,27.1690,-82.9260,-1.0,26.089,2 
COMPS,ioos:station:USF.COMPS:C10:1,2015-05-01T15:35:00Z,27.1690,-82.9260,-1.0,26.127,2 
COMPS,ioos:station:USF.COMPS:C10:1,2015-05-01T16:05:00Z,27.1690,-82.9260,-1.0,26.164,2 
COMPS,ioos:station:USF.COMPS:C10:1,2015-05-01T16:35:00Z,27.1690,-82.9260,-1.0,26.174,2 
COMPS,ioos:station:USF.COMPS:C10:1,2015-05-01T17:05:00Z,27.1690,-82.9260,-1.0,26.187,2 
COMPS,ioos:station:USF.COMPS:C10:1,2015-05-01T17:35:00Z,27.1690,-82.9260,-1.0,26.203,2 
COMPS,ioos:station:USF.COMPS:C10:1,2015-05-01T18:05:00Z,27.1690,-82.9260,-1.0,26.206,2 
COMPS,ioos:station:USF.COMPS:C10:1,2015-05-01T18:35:00Z,27.1690,-82.9260,-1.0,26.196,2 
COMPS,ioos:station:USF.COMPS:C10:1,2015-05-01T19:05:00Z,27.1690,-82.9260,-1.0,26.195,2 
COMPS,ioos:station:USF.COMPS:C10:1,2015-05-01T21:05:00Z,27.1690,-82.9260,-1.0,26.201,2 
COMPS,ioos:station:USF.COMPS:C10:1,2015-05-01T21:35:00Z,27.1690,-82.9260,-1.0,26.207,2 
COMPS,ioos:station:USF.COMPS:C10:1,2015-05-01T22:05:00Z,27.1690,-82.9260,-1.0,26.196,2 
COMPS,ioos:station:USF.COMPS:C10:1,2015-05-01T22:35:00Z,27.1690,-82.9260,-1.0,26.172,2 
COMPS,ioos:station:USF.COMPS:C10:1,2015-05-02T00:05:00Z,27.1690,-82.9260,-1.0,26.104,2 
COMPS,ioos:station:USF.COMPS:C10:1,2015-05-02T00:35:00Z,27.1690,-82.9260,-1.0,26.12,2 
COMPS,ioos:station:USF.COMPS:C10:1,2015-05-02T01:05:00Z,27.1690,-82.9260,-1.0,26.101,2 
COMPS,ioos:station:USF.COMPS:C10:1,2015-05-02T01:35:00Z,27.1690,-82.9260,-1.0,26.089,2 
COMPS,ioos:station:USF.COMPS:C10:1,2015-05-02T02:05:00Z,27.1690,-82.9260,-1.0,26.056,2 
COMPS,ioos:station:USF.COMPS:C10:1,2015-05-02T02:35:00Z,27.1690,-82.9260,-1.0,26.045,2 
COMPS,ioos:station:USF.COMPS:C10:1,2015-05-02T04:05:00Z,27.1690,-82.9260,-1.0,25.973,2 
COMPS,ioos:station:USF.COMPS:C10:1,2015-05-02T04:35:00Z,27.1690,-82.9260,-1.0,25.952,2 
COMPS,ioos:station:USF.COMPS:C10:1,2015-05-02T05:05:00Z,27.1690,-82.9260,-1.0,25.941,2 
COMPS,ioos:station:USF.COMPS:C10:1,2015-05-02T05:35:00Z,27.1690,-82.9260,-1.0,25.931,2 
COMPS,ioos:station:USF.COMPS:C10:1,2015-05-02T06:05:00Z,27.1690,-82.9260,-1.0,25.917,2 
COMPS,ioos:station:USF.COMPS:C10:1,2015-05-02T06:35:00Z,27.1690,-82.9260,-1.0,25.905,2 
COMPS,ioos:station:USF.COMPS:C10:1,2015-05-02T07:05:00Z,27.1690,-82.9260,-1.0,25.865,2 
COMPS,ioos:station:USF.COMPS:C10:1,2015-05-02T07:35:00Z,27.1690,-82.9260,-1.0,25.902,2 
COMPS,ioos:station:USF.COMPS:C10:1,2015-05-02T08:05:00Z,27.1690,-82.9260,-1.0,25.913,2 
COMPS,ioos:station:USF.COMPS:C10:1,2015-05-02T08:35:00Z,27.1690,-82.9260,-1.0,25.879,2 
COMPS,ioos:station:USF.COMPS:C10:1,2015-05-02T09:05:00Z,27.1690,-82.9260,-1.0,25.855,2 
COMPS,ioos:station:USF.COMPS:C10:1,2015-05-02T09:35:00Z,27.1690,-82.9260,-1.0,25.825,2 
COMPS,ioos:station:USF.COMPS:C10:1,2015-05-02T10:05:00Z,27.1690,-82.9260,-1.0,25.809,2 
COMPS,ioos:station:USF.COMPS:C10:1,2015-05-02T10:35:00Z,27.1690,-82.9260,-1.0,25.791,2 
COMPS,ioos:station:USF.COMPS:C10:1,2015-05-02T11:05:00Z,27.1690,-82.9260,-1.0,25.75,2 
COMPS,ioos:station:USF.COMPS:C10:1,2015-05-02T11:35:00Z,27.1690,-82.9260,-1.0,25.739,2 
COMPS,ioos:station:USF.COMPS:C10:1,2015-05-02T12:05:00Z,27.1690,-82.9260,-1.0,25.715,2 
COMPS,ioos:station:USF.COMPS:C10:1,2015-05-02T12:35:00Z,27.1690,-82.9260,-1.0,25.686,2 
COMPS,ioos:station:USF.COMPS:C10:1,2015-05-02T13:05:00Z,27.1690,-82.9260,-1.0,25.664,2 
COMPS,ioos:station:USF.COMPS:C10:1,2015-05-02T13:35:00Z,27.1690,-82.9260,-1.0,25.637,2 
COMPS,ioos:station:USF.COMPS:C10:1,2015-05-02T14:05:00Z,27.1690,-82.9260,-1.0,25.621,2 
COMPS,ioos:station:USF.COMPS:C10:1,2015-05-02T14:35:00Z,27.1690,-82.9260,-1.0,25.618,2 
COMPS,ioos:station:USF.COMPS:C10:1,2015-05-02T15:05:00Z,27.1690,-82.9260,-1.0,25.609,2 
COMPS,ioos:station:USF.COMPS:C10:1,2015-05-02T15:35:00Z,27.1690,-82.9260,-1.0,25.619,2 
COMPS,ioos:station:USF.COMPS:C10:1,2015-05-02T16:05:00Z,27.1690,-82.9260,-1.0,25.647,2 
COMPS,ioos:station:USF.COMPS:C10:1,2015-05-02T16:35:00Z,27.1690,-82.9260,-1.0,25.674,2 
COMPS,ioos:station:USF.COMPS:C10:1,2015-05-02T17:05:00Z,27.1690,-82.9260,-1.0,25.708,2 
COMPS,ioos:station:USF.COMPS:C10:1,2015-05-02T17:35:00Z,27.1690,-82.9260,-1.0,25.751,2 
COMPS,ioos:station:USF.COMPS:C10:1,2015-05-02T18:05:00Z,27.1690,-82.9260,-1.0,25.773,2 
COMPS,ioos:station:USF.COMPS:C10:1,2015-05-02T18:35:00Z,27.1690,-82.9260,-1.0,25.822,2 
COMPS,ioos:station:USF.COMPS:C10:1,2015-05-02T19:05:00Z,27.1690,-82.9260,-1.0,25.873,2 
COMPS,ioos:station:USF.COMPS:C10:1,2015-05-02T19:35:00Z,27.1690,-82.9260,-1.0,25.904,2 
COMPS,ioos:station:USF.COMPS:C10:1,2015-05-02T20:05:00Z,27.1690,-82.9260,-1.0,25.901,2 
COMPS,ioos:station:USF.COMPS:C10:1,2015-05-02T20:35:00Z,27.1690,-82.9260,-1.0,25.92,2 
COMPS,ioos:station:USF.COMPS:C10:1,2015-05-02T21:05:00Z,27.1690,-82.9260,-1.0,25.927,2 
COMPS,ioos:station:USF.COMPS:C10:1,2015-05-02T21:35:00Z,27.1690,-82.9260,-1.0,25.921,2 
COMPS,ioos:station:USF.COMPS:C10:1,2015-05-02T22:05:00Z,27.1690,-82.9260,-1.0,25.911,2 
COMPS,ioos:station:USF.COMPS:C10:1,2015-05-02T22:35:00Z,27.1690,-82.9260,-1.0,25.894,2 
COMPS,ioos:station:USF.COMPS:C10:1,2015-05-02T23:05:00Z,27.1690,-82.9260,-1.0,25.882,2 
COMPS,ioos:station:USF.COMPS:C10:1,2015-05-02T23:35:00Z,27.1690,-82.9260,-1.0,25.86,2 
COMPS,ioos:station:USF.COMPS:C10:1,2015-05-03T01:05:00Z,27.1690,-82.9260,-1.0,25.779,2 
COMPS,ioos:station:USF.COMPS:C10:1,2015-05-03T01:35:00Z,27.1690,-82.9260,-1.0,25.8,2 
COMPS,ioos:station:USF.COMPS:C10:1,2015-05-03T02:05:00Z,27.1690,-82.9260,-1.0,25.751,2 
COMPS,ioos:station:USF.COMPS:C10:1,2015-05-03T02:35:00Z,27.1690,-82.9260,-1.0,25.726,2 
COMPS,ioos:station:USF.COMPS:C10:1,2015-05-03T04:05:00Z,27.1690,-82.9260,-1.0,25.696,2 
COMPS,ioos:station:USF.COMPS:C10:1,2015-05-03T04:35:00Z,27.1690,-82.9260,-1.0,25.683,2 
COMPS,ioos:station:USF.COMPS:C10:1,2015-05-03T05:05:00Z,27.1690,-82.9260,-1.0,25.66,2 
COMPS,ioos:station:USF.COMPS:C10:1,2015-05-03T05:35:00Z,27.1690,-82.9260,-1.0,25.66,2 
COMPS,ioos:station:USF.COMPS:C10:1,2015-05-03T06:05:00Z,27.1690,-82.9260,-1.0,25.638,2 
COMPS,ioos:station:USF.COMPS:C10:1,2015-05-03T06:35:00Z,27.1690,-82.9260,-1.0,25.617,2 
COMPS,ioos:station:USF.COMPS:C10:1,2015-05-03T08:05:00Z,27.1690,-82.9260,-1.0,25.571,2 
COMPS,ioos:station:USF.COMPS:C10:1,2015-05-03T08:35:00Z,27.1690,-82.9260,-1.0,25.541,2 
COMPS,ioos:station:USF.COMPS:C10:1,2015-05-03T09:05:00Z,27.1690,-82.9260,-1.0,25.518,2 
COMPS,ioos:station:USF.COMPS:C10:1,2015-05-03T09:35:00Z,27.1690,-82.9260,-1.0,25.512,2 
COMPS,ioos:station:USF.COMPS:C10:1,2015-05-03T10:05:00Z,27.1690,-82.9260,-1.0,25.511,2 
COMPS,ioos:station:USF.COMPS:C10:1,2015-05-03T10:35:00Z,27.1690,-82.9260,-1.0,25.491,2 
COMPS,ioos:station:USF.COMPS:C10:1,2015-05-03T11:05:00Z,27.1690,-82.9260,-1.0,25.478,2 
COMPS,ioos:station:USF.COMPS:C10:1,2015-05-03T11:35:00Z,27.1690,-82.9260,-1.0,25.468,2 
COMPS,ioos:station:USF.COMPS:C10:1,2015-05-03T12:05:00Z,27.1690,-82.9260,-1.0,25.45,2 
COMPS,ioos:station:USF.COMPS:C10:1,2015-05-03T12:35:00Z,27.1690,-82.9260,-1.0,25.448,2 
COMPS,ioos:station:USF.COMPS:C10:1,2015-05-03T13:05:00Z,27.1690,-82.9260,-1.0,25.443,2 
COMPS,ioos:station:USF.COMPS:C10:1,2015-05-03T13:35:00Z,27.1690,-82.9260,-1.0,25.444,2 
COMPS,ioos:station:USF.COMPS:C10:1,2015-05-03T14:05:00Z,27.1690,-82.9260,-1.0,25.44,2 
COMPS,ioos:station:USF.COMPS:C10:1,2015-05-03T14:35:00Z,27.1690,-82.9260,-1.0,25.442,2 
COMPS,ioos:station:USF.COMPS:C10:1,2015-05-03T15:05:00Z,27.1690,-82.9260,-1.0,25.441,2 
COMPS,ioos:station:USF.COMPS:C10:1,2015-05-03T15:35:00Z,27.1690,-82.9260,-1.0,25.45,2 
COMPS,ioos:station:USF.COMPS:C10:1,2015-05-03T16:05:00Z,27.1690,-82.9260,-1.0,25.459,2 
COMPS,ioos:station:USF.COMPS:C10:1,2015-05-03T16:35:00Z,27.1690,-82.9260,-1.0,25.467,2 
COMPS,ioos:station:USF.COMPS:C10:1,2015-05-03T17:05:00Z,27.1690,-82.9260,-1.0,25.478,2 
COMPS,ioos:station:USF.COMPS:C10:1,2015-05-03T17:35:00Z,27.1690,-82.9260,-1.0,25.504,2 
COMPS,ioos:station:USF.COMPS:C10:1,2015-05-03T18:05:00Z,27.1690,-82.9260,-1.0,25.53,2 
COMPS,ioos:station:USF.COMPS:C10:1,2015-05-03T18:35:00Z,27.1690,-82.9260,-1.0,25.585,2 
COMPS,ioos:station:USF.COMPS:C10:1,2015-05-03T19:05:00Z,27.1690,-82.9260,-1.0,25.643,2 
COMPS,ioos:station:USF.COMPS:C10:1,2015-05-03T19:35:00Z,27.1690,-82.9260,-1.0,25.669,2 
COMPS,ioos:station:USF.COMPS:C10:1,2015-05-03T21:05:00Z,27.1690,-82.9260,-1.0,25.916,2 
COMPS,ioos:station:USF.COMPS:C10:1,2015-05-03T21:35:00Z,27.1690,-82.9260,-1.0,25.925,2 
COMPS,ioos:station:USF.COMPS:C10:1,2015-05-03T22:05:00Z,27.1690,-82.9260,-1.0,25.905,2 
COMPS,ioos:station:USF.COMPS:C10:1,2015-05-03T22:35:00Z,27.1690,-82.9260,-1.0,25.867,2 
COMPS,ioos:station:USF.COMPS:C10:1,2015-05-03T23:05:00Z,27.1690,-82.9260,-1.0,25.851,2 
COMPS,ioos:station:USF.COMPS:C10:1,2015-05-03T23:35:00Z,27.1690,-82.9260,-1.0,25.81,2 
COMPS,ioos:station:USF.COMPS:C10:1,2015-05-04T00:05:00Z,27.1690,-82.9260,-1.0,25.781,2 
COMPS,ioos:station:USF.COMPS:C10:1,2015-05-04T00:35:00Z,27.1690,-82.9260,-1.0,25.721,2 
COMPS,ioos:station:USF.COMPS:C10:1,2015-05-04T01:05:00Z,27.1690,-82.9260,-1.0,25.662,2 
COMPS,ioos:station:USF.COMPS:C10:1,2015-05-04T01:35:00Z,27.1690,-82.9260,-1.0,25.608,2 
COMPS,ioos:station:USF.COMPS:C10:1,2015-05-04T02:05:00Z,27.1690,-82.9260,-1.0,25.55,2 
COMPS,ioos:station:USF.COMPS:C10:1,2015-05-04T02:35:00Z,27.1690,-82.9260,-1.0,25.509,2 
COMPS,ioos:station:USF.COMPS:C10:1,2015-05-04T03:05:00Z,27.1690,-82.9260,-1.0,25.482,2 
COMPS,ioos:station:USF.COMPS:C10:1,2015-05-04T03:35:00Z,27.1690,-82.9260,-1.0,25.471,2 
COMPS,ioos:station:USF.COMPS:C10:1,2015-05-04T04:05:00Z,27.1690,-82.9260,-1.0,25.448,2 
COMPS,ioos:station:USF.COMPS:C10:1,2015-05-04T04:35:00Z,27.1690,-82.9260,-1.0,25.424,2 
COMPS,ioos:station:USF.COMPS:C10:1,2015-05-04T05:05:00Z,27.1690,-82.9260,-1.0,25.407,2 
COMPS,ioos:station:USF.COMPS:C10:1,2015-05-04T05:35:00Z,27.1690,-82.9260,-1.0,25.4,2 
COMPS,ioos:station:USF.COMPS:C10:1,2015-05-04T06:05:00Z,27.1690,-82.9260,-1.0,25.387,2 
COMPS,ioos:station:USF.COMPS:C10:1,2015-05-04T06:35:00Z,27.1690,-82.9260,-1.0,25.367,2 
COMPS,ioos:station:USF.COMPS:C10:1,2015-05-04T07:05:00Z,27.1690,-82.9260,-1.0,25.353,2 
COMPS,ioos:station:USF.COMPS:C10:1,2015-05-04T07:35:00Z,27.1690,-82.9260,-1.0,25.34,2 
COMPS,ioos:station:USF.COMPS:C10:1,2015-05-04T08:05:00Z,27.1690,-82.9260,-1.0,25.321,2 
COMPS,ioos:station:USF.COMPS:C10:1,2015-05-04T08:35:00Z,27.1690,-82.9260,-1.0,25.308,2 
COMPS,ioos:station:USF.COMPS:C10:1,2015-05-04T09:05:00Z,27.1690,-82.9260,-1.0,25.289,2 
COMPS,ioos:station:USF.COMPS:C10:1,2015-05-04T09:35:00Z,27.1690,-82.9260,-1.0,25.273,2 
COMPS,ioos:station:USF.COMPS:C10:1,2015-05-04T10:05:00Z,27.1690,-82.9260,-1.0,25.257,2 
COMPS,ioos:station:USF.COMPS:C10:1,2015-05-04T10:35:00Z,27.1690,-82.9260,-1.0,25.22,2 
COMPS,ioos:station:USF.COMPS:C10:1,2015-05-04T11:05:00Z,27.1690,-82.9260,-1.0,25.212,2 
COMPS,ioos:station:USF.COMPS:C10:1,2015-05-04T11:35:00Z,27.1690,-82.9260,-1.0,25.193,2 
COMPS,ioos:station:USF.COMPS:C10:1,2015-05-04T12:05:00Z,27.1690,-82.9260,-1.0,25.162,2 
COMPS,ioos:station:USF.COMPS:C10:1,2015-05-04T12:35:00Z,27.1690,-82.9260,-1.0,25.139,2 
COMPS,ioos:station:USF.COMPS:C10:1,2015-05-04T13:05:00Z,27.1690,-82.9260,-1.0,25.133,2 
COMPS,ioos:station:USF.COMPS:C10:1,2015-05-04T13:35:00Z,27.1690,-82.9260,-1.0,25.109,2 
COMPS,ioos:station:USF.COMPS:C10:1,2015-05-04T14:05:00Z,27.1690,-82.9260,-1.0,25.106,2 
COMPS,ioos:station:USF.COMPS:C10:1,2015-05-04T14:35:00Z,27.1690,-82.9260,-1.0,25.099,2 
COMPS,ioos:station:USF.COMPS:C10:1,2015-05-04T15:05:00Z,27.1690,-82.9260,-1.0,25.076,2 
COMPS,ioos:station:USF.COMPS:C10:1,2015-05-04T15:35:00Z,27.1690,-82.9260,-1.0,25.078,2 
COMPS,ioos:station:USF.COMPS:C10:1,2015-05-04T16:05:00Z,27.1690,-82.9260,-1.0,25.115,2 
COMPS,ioos:station:USF.COMPS:C10:1,2015-05-04T16:35:00Z,27.1690,-82.9260,-1.0,25.139,2 
COMPS,ioos:station:USF.COMPS:C10:1,2015-05-04T17:05:00Z,27.1690,-82.9260,-1.0,25.157,2 
COMPS,ioos:station:USF.COMPS:C10:1,2015-05-04T17:35:00Z,27.1690,-82.9260,-1.0,25.187,2 
COMPS,ioos:station:USF.COMPS:C10:1,2015-05-04T18:05:00Z,27.1690,-82.9260,-1.0,25.226,2 
COMPS,ioos:station:USF.COMPS:C10:1,2015-05-04T18:35:00Z,27.1690,-82.9260,-1.0,25.257,2 
COMPS,ioos:station:USF.COMPS:C10:1,2015-05-04T19:05:00Z,27.1690,-82.9260,-1.0,25.263,2 
COMPS,ioos:station:USF.COMPS:C10:1,2015-05-04T19:35:00Z,27.1690,-82.9260,-1.0,25.302,2 
COMPS,ioos:station:USF.COMPS:C10:1,2015-05-04T20:05:00Z,27.1690,-82.9260,-1.0,25.311,2 
COMPS,ioos:station:USF.COMPS:C10:1,2015-05-04T20:35:00Z,27.1690,-82.9260,-1.0,25.323,2 
COMPS,ioos:station:USF.COMPS:C10:1,2015-05-04T21:05:00Z,27.1690,-82.9260,-1.0,25.329,2 
COMPS,ioos:station:USF.COMPS:C10:1,2015-05-04T21:35:00Z,27.1690,-82.9260,-1.0,25.313,2 
COMPS,ioos:station:USF.COMPS:C10:1,2015-05-04T22:05:00Z,27.1690,-82.9260,-1.0,25.298,2 
COMPS,ioos:station:USF.COMPS:C10:1,2015-05-04T22:35:00Z,27.1690,-82.9260,-1.0,25.277,2 
COMPS,ioos:station:USF.COMPS:C10:1,2015-05-04T23:05:00Z,27.1690,-82.9260,-1.0,25.255,2 
COMPS,ioos:station:USF.COMPS:C10:1,2015-05-04T23:35:00Z,27.1690,-82.9260,-1.0,25.239,2 
COMPS,ioos:station:USF.COMPS:C10:1,2015-05-05T00:05:00Z,27.1690,-82.9260,-1.0,25.212,2 
COMPS,ioos:station:USF.COMPS:C10:1,2015-05-05T00:35:00Z,27.1690,-82.9260,-1.0,25.192,2 
COMPS,ioos:station:USF.COMPS:C10:1,2015-05-05T01:05:00Z,27.1690,-82.9260,-1.0,25.176,2 
COMPS,ioos:station:USF.COMPS:C10:1,2015-05-05T01:35:00Z,27.1690,-82.9260,-1.0,25.168,2 
COMPS,ioos:station:USF.COMPS:C10:1,2015-05-05T02:05:00Z,27.1690,-82.9260,-1.0,25.152,2 
COMPS,ioos:station:USF.COMPS:C10:1,2015-05-05T02:35:00Z,27.1690,-82.9260,-1.0,25.126,2 
COMPS,ioos:station:USF.COMPS:C10:1,2015-05-05T04:05:00Z,27.1690,-82.9260,-1.0,25.077,2 
COMPS,ioos:station:USF.COMPS:C10:1,2015-05-05T04:35:00Z,27.1690,-82.9260,-1.0,25.066,2 
COMPS,ioos:station:USF.COMPS:C10:1,2015-05-05T05:05:00Z,27.1690,-82.9260,-1.0,25.05,2 
COMPS,ioos:station:USF.COMPS:C10:1,2015-05-05T05:35:00Z,27.1690,-82.9260,-1.0,25.042,2 
COMPS,ioos:station:USF.COMPS:C10:1,2015-05-05T06:05:00Z,27.1690,-82.9260,-1.0,25.032,2 
COMPS,ioos:station:USF.COMPS:C10:1,2015-05-05T06:35:00Z,27.1690,-82.9260,-1.0,25.018,2 
COMPS,ioos:station:USF.COMPS:C10:1,2015-05-05T07:05:00Z,27.1690,-82.9260,-1.0,25.0,2 
COMPS,ioos:station:USF.COMPS:C10:1,2015-05-05T07:35:00Z,27.1690,-82.9260,-1.0,24.991,2 
COMPS,ioos:station:USF.COMPS:C10:1,2015-05-05T08:05:00Z,27.1690,-82.9260,-1.0,24.983,2 
COMPS,ioos:station:USF.COMPS:C10:1,2015-05-05T08:35:00Z,27.1690,-82.9260,-1.0,24.967,2 
COMPS,ioos:station:USF.COMPS:C10:1,2015-05-05T09:05:00Z,27.1690,-82.9260,-1.0,24.956,2 
COMPS,ioos:station:USF.COMPS:C10:1,2015-05-05T09:35:00Z,27.1690,-82.9260,-1.0,24.939,2 
COMPS,ioos:station:USF.COMPS:C10:1,2015-05-05T10:05:00Z,27.1690,-82.9260,-1.0,24.927,2 
COMPS,ioos:station:USF.COMPS:C10:1,2015-05-05T10:35:00Z,27.1690,-82.9260,-1.0,24.911,2 
COMPS,ioos:station:USF.COMPS:C10:1,2015-05-05T11:05:00Z,27.1690,-82.9260,-1.0,24.901,2 
COMPS,ioos:station:USF.COMPS:C10:1,2015-05-05T11:35:00Z,27.1690,-82.9260,-1.0,24.892,2 
COMPS,ioos:station:USF.COMPS:C10:1,2015-05-05T12:05:00Z,27.1690,-82.9260,-1.0,24.877,2 
COMPS,ioos:station:USF.COMPS:C10:1,2015-05-05T12:35:00Z,27.1690,-82.9260,-1.0,24.879,2 
COMPS,ioos:station:USF.COMPS:C10:1,2015-05-05T13:05:00Z,27.1690,-82.9260,-1.0,24.872,2 
COMPS,ioos:station:USF.COMPS:C10:1,2015-05-05T13:35:00Z,27.1690,-82.9260,-1.0,24.873,2 
COMPS,ioos:station:USF.COMPS:C10:1,2015-05-05T14:05:00Z,27.1690,-82.9260,-1.0,24.871,2 
COMPS,ioos:station:USF.COMPS:C10:1,2015-05-05T14:35:00Z,27.1690,-82.9260,-1.0,24.876,2 
COMPS,ioos:station:USF.COMPS:C10:1,2015-05-05T15:05:00Z,27.1690,-82.9260,-1.0,24.881,2 
COMPS,ioos:station:USF.COMPS:C10:1,2015-05-05T15:35:00Z,27.1690,-82.9260,-1.0,24.895,2 
COMPS,ioos:station:USF.COMPS:C10:1,2015-05-05T16:05:00Z,27.1690,-82.9260,-1.0,24.931,2 
COMPS,ioos:station:USF.COMPS:C10:1,2015-05-05T16:35:00Z,27.1690,-82.9260,-1.0,24.961,2 
COMPS,ioos:station:USF.COMPS:C10:1,2015-05-05T17:05:00Z,27.1690,-82.9260,-1.0,25.001,2 
COMPS,ioos:station:USF.COMPS:C10:1,2015-05-05T17:35:00Z,27.1690,-82.9260,-1.0,25.011,2 
COMPS,ioos:station:USF.COMPS:C10:1,2015-05-05T18:05:00Z,27.1690,-82.9260,-1.0,25.05,2 
COMPS,ioos:station:USF.COMPS:C10:1,2015-05-05T18:35:00Z,27.1690,-82.9260,-1.0,25.066,2 
COMPS,ioos:station:USF.COMPS:C10:1,2015-05-05T19:35:00Z,27.1690,-82.9260,-1.0,25.233,2 
COMPS,ioos:station:USF.COMPS:C10:1,2015-05-05T20:05:00Z,27.1690,-82.9260,-1.0,25.377,2 
COMPS,ioos:station:USF.COMPS:C10:1,2015-05-05T20:35:00Z,27.1690,-82.9260,-1.0,25.349,2 
COMPS,ioos:station:USF.COMPS:C10:1,2015-05-05T21:05:00Z,27.1690,-82.9260,-1.0,25.288,2 
COMPS,ioos:station:USF.COMPS:C10:1,2015-05-05T21:35:00Z,27.1690,-82.9260,-1.0,25.286,2 
COMPS,ioos:station:USF.COMPS:C10:1,2015-05-05T22:05:00Z,27.1690,-82.9260,-1.0,25.323,2 
COMPS,ioos:station:USF.COMPS:C10:1,2015-05-05T22:35:00Z,27.1690,-82.9260,-1.0,25.331,2 
COMPS,ioos:station:USF.COMPS:C10:1,2015-05-05T23:05:00Z,27.1690,-82.9260,-1.0,25.334,2 
COMPS,ioos:station:USF.COMPS:C10:1,2015-05-06T00:05:00Z,27.1690,-82.9260,-1.0,25.285,2 
COMPS,ioos:station:USF.COMPS:C10:1,2015-05-06T00:35:00Z,27.1690,-82.9260,-1.0,25.235,2 
COMPS,ioos:station:USF.COMPS:C10:1,2015-05-06T01:05:00Z,27.1690,-82.9260,-1.0,25.188,2 
COMPS,ioos:station:USF.COMPS:C10:1,2015-05-06T01:35:00Z,27.1690,-82.9260,-1.0,25.151,2 
COMPS,ioos:station:USF.COMPS:C10:1,2015-05-06T02:05:00Z,27.1690,-82.9260,-1.0,25.13,2 
COMPS,ioos:station:USF.COMPS:C10:1,2015-05-06T02:35:00Z,27.1690,-82.9260,-1.0,25.095,2 
COMPS,ioos:station:USF.COMPS:C10:1,2015-05-06T04:05:00Z,27.1690,-82.9260,-1.0,25.052,2 
COMPS,ioos:station:USF.COMPS:C10:1,2015-05-06T04:35:00Z,27.1690,-82.9260,-1.0,25.064,2 
COMPS,ioos:station:USF.COMPS:C10:1,2015-05-06T05:05:00Z,27.1690,-82.9260,-1.0,25.065,2 
COMPS,ioos:station:USF.COMPS:C10:1,2015-05-06T05:35:00Z,27.1690,-82.9260,-1.0,25.073,2 
COMPS,ioos:station:USF.COMPS:C10:1,2015-05-06T06:05:00Z,27.1690,-82.9260,-1.0,25.064,2 
COMPS,ioos:station:USF.COMPS:C10:1,2015-05-06T06:35:00Z,27.1690,-82.9260,-1.0,25.071,2 
COMPS,ioos:station:USF.COMPS:C10:1,2015-05-06T07:05:00Z,27.1690,-82.9260,-1.0,25.069,2 
COMPS,ioos:station:USF.COMPS:C10:1,2015-05-06T07:35:00Z,27.1690,-82.9260,-1.0,25.07,2 
COMPS,ioos:station:USF.COMPS:C10:1,2015-05-06T08:05:00Z,27.1690,-82.9260,-1.0,25.069,2 
COMPS,ioos:station:USF.COMPS:C10:1,2015-05-06T08:35:00Z,27.1690,-82.9260,-1.0,25.064,2 
COMPS,ioos:station:USF.COMPS:C10:1,2015-05-06T09:05:00Z,27.1690,-82.9260,-1.0,25.066,2 
COMPS,ioos:station:USF.COMPS:C10:1,2015-05-06T09:35:00Z,27.1690,-82.9260,-1.0,25.059,2 
COMPS,ioos:station:USF.COMPS:C10:1,2015-05-06T10:05:00Z,27.1690,-82.9260,-1.0,25.056,2 
COMPS,ioos:station:USF.COMPS:C10:1,2015-05-06T10:35:00Z,27.1690,-82.9260,-1.0,25.055,2 
COMPS,ioos:station:USF.COMPS:C10:1,2015-05-06T11:05:00Z,27.1690,-82.9260,-1.0,25.06,2 
COMPS,ioos:station:USF.COMPS:C10:1,2015-05-06T11:35:00Z,27.1690,-82.9260,-1.0,25.068,2 
COMPS,ioos:station:USF.COMPS:C10:1,2015-05-06T12:05:00Z,27.1690,-82.9260,-1.0,25.073,2 
COMPS,ioos:station:USF.COMPS:C10:1,2015-05-06T12:35:00Z,27.1690,-82.9260,-1.0,25.092,2 
COMPS,ioos:station:USF.COMPS:C10:1,2015-05-06T13:05:00Z,27.1690,-82.9260,-1.0,25.107,2 
COMPS,ioos:station:USF.COMPS:C10:1,2015-05-06T13:35:00Z,27.1690,-82.9260,-1.0,25.115,2 
COMPS,ioos:station:USF.COMPS:C10:1,2015-05-06T14:05:00Z,27.1690,-82.9260,-1.0,25.113,2 
COMPS,ioos:station:USF.COMPS:C10:1,2015-05-06T14:35:00Z,27.1690,-82.9260,-1.0,25.126,2 
COMPS,ioos:station:USF.COMPS:C10:1,2015-05-06T15:05:00Z,27.1690,-82.9260,-1.0,25.147,2 
COMPS,ioos:station:USF.COMPS:C10:1,2015-05-06T15:35:00Z,27.1690,-82.9260,-1.0,25.202,2 
COMPS,ioos:station:USF.COMPS:C10:1,2015-05-06T16:05:00Z,27.1690,-82.9260,-1.0,25.266,2 
COMPS,ioos:station:USF.COMPS:C10:1,2015-05-06T16:35:00Z,27.1690,-82.9260,-1.0,25.368,2 
COMPS,ioos:station:USF.COMPS:C10:1,2015-05-06T17:05:00Z,27.1690,-82.9260,-1.0,25.517,2 
COMPS,ioos:station:USF.COMPS:C10:1,2015-05-06T17:35:00Z,27.1690,-82.9260,-1.0,25.768,2 
COMPS,ioos:station:USF.COMPS:C10:1,2015-05-06T18:05:00Z,27.1690,-82.9260,-1.0,25.974,2 
COMPS,ioos:station:USF.COMPS:C10:1,2015-05-06T18:35:00Z,27.1690,-82.9260,-1.0,26.067,2 
COMPS,ioos:station:USF.COMPS:C10:1,2015-05-06T19:05:00Z,27.1690,-82.9260,-1.0,26.049,2 
COMPS,ioos:station:USF.COMPS:C10:1,2015-05-06T19:35:00Z,27.1690,-82.9260,-1.0,26.011,2 
COMPS,ioos:station:USF.COMPS:C10:1,2015-05-06T20:05:00Z,27.1690,-82.9260,-1.0,25.97,2 
COMPS,ioos:station:USF.COMPS:C10:1,2015-05-06T20:35:00Z,27.1690,-82.9260,-1.0,25.921,2 
COMPS,ioos:station:USF.COMPS:C10:1,2015-05-06T21:05:00Z,27.1690,-82.9260,-1.0,25.895,2 
COMPS,ioos:station:USF.COMPS:C10:1,2015-05-06T21:35:00Z,27.1690,-82.9260,-1.0,25.888,2 
COMPS,ioos:station:USF.COMPS:C10:1,2015-05-06T22:05:00Z,27.1690,-82.9260,-1.0,25.985,2 
COMPS,ioos:station:USF.COMPS:C10:1,2015-05-06T22:35:00Z,27.1690,-82.9260,-1.0,25.969,2 
COMPS,ioos:station:USF.COMPS:C10:1,2015-05-07T00:05:00Z,27.1690,-82.9260,-1.0,25.773,2 
COMPS,ioos:station:USF.COMPS:C10:1,2015-05-07T00:35:00Z,27.1690,-82.9260,-1.0,25.718,2 
COMPS,ioos:station:USF.COMPS:C10:1,2015-05-07T04:05:00Z,27.1690,-82.9260,-1.0,25.475,2 
COMPS,ioos:station:USF.COMPS:C10:1,2015-05-07T04:35:00Z,27.1690,-82.9260,-1.0,25.449,2 
COMPS,ioos:station:USF.COMPS:C10:1,2015-05-07T05:05:00Z,27.1690,-82.9260,-1.0,25.427,2 
COMPS,ioos:station:USF.COMPS:C10:1,2015-05-07T05:35:00Z,27.1690,-82.9260,-1.0,25.415,2 
COMPS,ioos:station:USF.COMPS:C10:1,2015-05-07T06:05:00Z,27.1690,-82.9260,-1.0,25.382,2 
COMPS,ioos:station:USF.COMPS:C10:1,2015-05-07T06:35:00Z,27.1690,-82.9260,-1.0,25.37,2 
COMPS,ioos:station:USF.COMPS:C10:1,2015-05-07T07:05:00Z,27.1690,-82.9260,-1.0,25.33,2 
COMPS,ioos:station:USF.COMPS:C10:1,2015-05-07T07:35:00Z,27.1690,-82.9260,-1.0,25.306,2 
COMPS,ioos:station:USF.COMPS:C10:1,2015-05-07T08:05:00Z,27.1690,-82.9260,-1.0,25.271,2 
COMPS,ioos:station:USF.COMPS:C10:1,2015-05-07T09:05:00Z,27.1690,-82.9260,-1.0,25.233,2 
COMPS,ioos:station:USF.COMPS:C10:1,2015-05-07T09:35:00Z,27.1690,-82.9260,-1.0,25.203,2 
COMPS,ioos:station:USF.COMPS:C10:1,2015-05-07T10:35:00Z,27.1690,-82.9260,-1.0,25.178,2 
COMPS,ioos:station:USF.COMPS:C10:1,2015-05-07T11:05:00Z,27.1690,-82.9260,-1.0,25.173,2 
COMPS,ioos:station:USF.COMPS:C10:1,2015-05-07T11:35:00Z,27.1690,-82.9260,-1.0,25.159,2 
COMPS,ioos:station:USF.COMPS:C10:1,2015-05-07T12:05:00Z,27.1690,-82.9260,-1.0,25.141,2 